STARLINK-31965, 59888

Orbit data source: Space-Track

STARLINK-31965, 59888 is a payload satellite owned by SpaceX/Seattle (US) in LEO that was launched on Tue, 28 May 2024 UTC via an FALCON 9 launch vehicle from the Air Force Eastern Test Range (AFETR). Payload-class satellites include a variety of spacecraft equipped with specific instruments for various scientific and technological missions. These include communications satellites like Starlink; space stations such as the ISS; scientific satellites like the Hubble; Earth observation satellites from companies like Planet Labs, Umbra, and HawkEye 360; GPS; miniature CubeSats for education and research; and military/defense satellites.

Loading next visibility...
Identifier
59888, 2024-100D
Orbit
LEO
Country
Flag of USUS
Related business
Manufacturer
SpaceX/Seattle
Mission
Operational Commercial Communications
Bus & Motor
STARLINK V2M, Unknown motor
Mass
730 kg wet, ~700 kg dry
Launch date (UTC)
2024-05-28 (2 years ago)
Launch vehicle
FALCON 9
Launch site
Air Force Eastern Test Range (AFETR)
Object type
Payload
Rocket body
Debris
Shape & HBR
Box + 2 Pan, 17.7 m
Radar Cross Section
33.884 m², Large (>1 m²)

Expand to show TLE details & history
Last TLE update: 9 hours ago

TLE from 9 hours ago
0 STARLINK-31965
1 59888U 24100D   26126.41872007  .00021245  00000-0  77894-3 0  9993
2 59888  43.0028 159.5632 0002865 293.1041  66.9508 15.27594632109883
Epoch: 2026-05-06T10:02Z
TLE epoch observation values (Epoch: 2026-05-06T10:02:57.414Z)
Latitude
-0.00004°
Longitude
144.54444°
Altitude
482.012 km
Speed
7.627 km/s
True Right ascension
10h 38m 15s
True Declination
0° 00' 00"
Sunlit
Object was in full shadow at epoch
Visualization orbit readout
Latitude
Unknown
Longitude
Unknown
Altitude
Unknown
Speed
Unknown
Apparent Right ascension
Unknown
Apparent Declination
Unknown
Sunlit
N/A
Visualization observer readout
Local Sidereal Time
03:03:13
Azimuth
Unknown
Elevation
Unknown
Doppler factor
Unknown
Orbital elements
Apogee altitude
486.916 km
Perigee altitude
482.984 km
Semi-major axis
6,863.087 km
Eccentricity
0.00029
Inclination
43.0028°
RAAN
159.5632°
Arg. of periapsis
293.1041°
True anomaly
66.98101°
Mean anomaly
66.9508°
Eccentric anomaly
66.96591°
Mean motion
3.81737 °/min
Orbital period
94.31 mins
BSTAR
0.00077894
Loading maneuver chart data...
Computing Atmospheric mass density...
Loading historical data...
Loading historical data...
Loading historical data...
Loading historical data...
Loading historical data...
Loading historical data...
Loading historical data...

Documentation

Showing up to 5 results
|